Date String (YYYY-MM-DD hh:mm:ss) UTC,Instrument flags,absolute air pressure of the measurement (hPa),sample flow rate (lpm),inlet stack bypass flow (lpm),air temperature of the measurement (°C),ambient temperature measured by the external sensor (°C),aerosol sample conditioner tube jacket temperature (°C),OPC LED temperature (°C),internal box temperature (°C),relative humidity of the measurement (%),span deviation,mass concentration of particles derived from Lorenz-Mie calculation of OPC scattering (μg/m³),mass concentration of particles derived from Lorenz-Mie calculation of OPC scattering (μg/m³),mass concentration of particles derived from Lorenz-Mie calculation of OPC scattering (μg/m³)
DateTimeUTC,F1_M11,P_M11,Q1_M11,Q2_M11,T1_M11,T2_M11,T3_M11,T4_M11,T5_M11,U1_M11,ZSPAN_M11,X2_M11,X0_M11,X1_M11
2023-11-11 09:00:00,SystemResetWarning,0830.9,5.00,000.00,023.0,022.0,000.0,031.5,024.5,8.0,0000.0,0003.27,0006.18,0002.47
2023-11-11 09:01:00,SystemResetWarning,0830.9,5.00,000.00,023.0,021.9,000.0,031.4,024.4,8.2,0000.0,0003.24,0006.81,0002.44
2023-11-11 09:02:00,SystemResetWarning,0830.9,5.01,000.00,023.0,021.9,000.0,031.4,024.4,7.9,0000.0,0003.20,0007.45,0002.44
2023-11-11 09:03:00,SystemResetWarning,0830.9,5.01,000.00,023.0,021.9,000.0,031.4,024.4,7.7,0000.0,0003.21,0007.50,0002.45
2023-11-11 09:04:00,SystemResetWarning,0830.9,4.99,000.00,023.0,021.9,000.0,031.4,024.4,7.5,0000.0,0003.20,0007.56,0002.43
2023-11-11 09:05:00,SystemResetWarning,0830.9,4.99,000.00,023.0,021.9,000.0,031.4,024.4,7.7,0000.0,0003.21,0007.96,0002.43
2023-11-11 09:06:00,SystemResetWarning,0830.8,5.01,000.00,023.0,021.9,000.0,031.4,024.4,7.4,0000.0,0003.24,0008.13,0002.43
2023-11-11 09:07:00,SystemResetWarning,0830.8,5.00,000.00,023.0,021.9,000.0,031.4,024.4,6.9,0000.0,0003.24,0008.24,0002.41
2023-11-11 09:08:00,SystemResetWarning,0830.8,5.00,000.00,023.0,021.8,000.0,031.4,024.4,7.0,0000.0,0003.24,0008.27,0002.41
2023-11-11 09:09:00,SystemResetWarning,0830.8,5.00,000.00,023.0,021.8,000.0,031.4,024.4,6.9,0000.0,0003.24,0008.27,0002.41
2023-11-11 09:10:00,SystemResetWarning,0830.7,5.00,000.00,023.0,021.9,000.0,031.4,024.3,6.9,0000.0,0003.21,0008.11,0002.38
2023-11-11 09:11:00,SystemResetWarning,0830.7,5.00,000.00,023.0,021.9,000.0,031.4,024.3,6.8,0000.0,0003.17,0007.73,0002.35
2023-11-11 09:12:00,SystemResetWarning,0830.8,4.99,000.00,023.0,021.9,000.0,031.4,024.3,7.0,0000.0,0003.16,0007.25,0002.34
2023-11-11 09:13:00,SystemResetWarning,0830.8,4.99,000.00,023.0,021.8,000.0,031.4,024.3,6.9,0000.0,0003.17,0006.56,0002.32
2023-11-11 09:14:00,SystemResetWarning,0830.8,5.01,000.00,023.0,021.8,000.0,031.4,024.4,7.0,0000.0,0003.17,0006.53,0002.30
2023-11-11 09:15:00,SystemResetWarning,0830.8,5.00,000.00,023.0,021.9,000.0,031.4,024.3,7.0,0000.0,0003.14,0006.24,0002.25
2023-11-11 09:16:00,SystemResetWarning,0830.9,5.01,000.00,023.0,021.9,000.0,031.4,024.3,7.3,0000.0,0003.12,0005.47,0002.22
2023-11-11 09:17:00,SystemResetWarning,0830.9,5.00,000.00,022.9,021.9,000.0,031.4,024.3,7.5,0000.0,0003.08,0005.17,0002.19
2023-11-11 09:18:00,SystemResetWarning,0830.9,4.99,000.00,022.9,021.8,000.0,031.4,024.3,8.0,0000.0,0003.05,0004.97,0002.17
2023-11-11 09:19:00,SystemResetWarning,0831.0,4.99,000.00,022.9,021.8,000.0,031.3,024.3,8.0,0000.0,0002.96,0004.83,0002.15
2023-11-11 09:20:00,SystemResetWarning,0830.9,5.01,000.00,022.9,021.8,000.0,031.3,024.3,8.1,0000.0,0002.94,0005.56,0002.12
2023-11-11 09:21:00,SystemResetWarning,0831.0,5.01,000.00,022.9,021.7,000.0,031.3,024.3,8.0,0000.0,0002.89,0005.46,0002.10
2023-11-11 09:22:00,SystemResetWarning,0830.9,4.99,000.00,022.9,021.7,000.0,031.3,024.2,7.8,0000.0,0002.91,0005.30,0002.11
2023-11-11 09:23:00,SystemResetWarning,0830.9,4.99,000.00,022.9,021.7,000.0,031.3,024.1,7.8,0000.0,0002.93,0005.19,0002.14
2023-11-11 09:24:00,SystemResetWarning,0830.8,5.01,000.00,022.8,021.7,000.0,031.3,024.1,7.6,0000.0,0003.01,0005.34,0002.17
2023-11-11 09:25:00,SystemResetWarning,0830.7,5.01,000.00,022.8,021.7,000.0,031.3,024.2,7.4,0000.0,0003.03,0005.41,0002.20
2023-11-11 09:26:00,SystemResetWarning,0830.7,5.00,000.00,022.8,021.6,000.0,031.3,024.2,7.6,0000.0,0003.05,0005.54,0002.22
2023-11-11 09:27:00,SystemResetWarning,0830.6,5.00,000.00,022.8,021.6,000.0,031.3,024.1,7.5,0000.0,0003.10,0005.64,0002.25
2023-11-11 09:28:00,SystemResetWarning,0830.6,5.00,000.00,022.8,021.6,000.0,031.3,024.1,7.3,0000.0,0003.11,0005.74,0002.26
2023-11-11 09:29:00,SystemResetWarning,0830.6,4.99,000.00,022.8,021.6,000.0,031.3,024.0,7.2,0000.0,0003.11,0005.81,0002.26
2023-11-11 09:30:00,SystemResetWarning,0830.6,5.00,000.00,022.8,021.6,000.0,031.2,024.0,7.1,0000.0,0003.12,0005.82,0002.29
2023-11-11 09:31:00,SystemResetWarning,0830.6,5.01,000.00,022.7,021.5,000.0,031.2,024.0,7.2,0000.0,0003.11,0005.00,0002.29
2023-11-11 09:32:00,SystemResetWarning,0830.5,5.01,000.00,022.7,021.5,000.0,031.2,023.9,7.1,0000.0,0003.13,0005.18,0002.30
2023-11-11 09:33:00,SystemResetWarning,0830.4,5.00,000.00,022.7,021.5,000.0,031.2,023.9,7.1,0000.0,0003.17,0005.60,0002.28
2023-11-11 09:34:00,SystemResetWarning,0830.6,4.99,000.00,022.7,021.4,000.0,031.2,023.9,7.3,0000.0,0003.21,0005.96,0002.27
2023-11-11 09:35:00,SystemResetWarning,0830.6,4.99,000.00,022.7,021.4,000.0,031.2,023.9,7.2,0000.0,0003.22,0006.21,0002.26
2023-11-11 09:36:00,SystemResetWarning,0830.6,4.99,000.00,022.7,021.4,000.0,031.2,023.9,6.9,0000.0,0003.17,0005.97,0002.23
2023-11-11 09:37:00,SystemResetWarning,0830.6,5.01,000.00,022.6,021.4,000.0,031.1,023.9,6.4,0000.0,0003.17,0006.20,0002.22
2023-11-11 09:38:00,SystemResetWarning,0830.6,5.01,000.00,022.6,021.4,000.0,031.1,023.9,6.7,0000.0,0003.15,0006.19,0002.21
2023-11-11 09:39:00,SystemResetWarning,0830.6,4.99,000.00,022.6,021.4,000.0,031.1,023.9,6.9,0000.0,0003.15,0006.19,0002.22
2023-11-11 09:40:00,SystemResetWarning,0830.6,4.99,000.00,022.6,021.4,000.0,031.1,023.9,6.8,0000.0,0003.14,0006.13,0002.21
2023-11-11 09:41:00,SystemResetWarning,0830.7,5.00,000.00,022.6,021.4,000.0,031.1,023.8,6.8,0000.0,0003.17,0006.31,0002.20
2023-11-11 09:42:00,SystemResetWarning,0830.6,5.01,000.00,022.6,021.4,000.0,031.1,023.8,7.1,0000.0,0003.20,0006.55,0002.19
2023-11-11 09:43:00,SystemResetWarning,0830.6,5.00,000.00,022.6,021.4,000.0,031.1,023.9,7.0,0000.0,0003.17,0006.39,0002.18
2023-11-11 09:44:00,SystemResetWarning,0830.6,5.00,000.00,022.5,021.4,000.0,031.1,023.9,7.2,0000.0,0003.12,0005.94,0002.17
2023-11-11 09:45:00,SystemResetWarning,0830.5,5.01,000.00,022.5,021.4,000.0,031.0,023.8,7.1,0000.0,0003.05,0005.61,0002.17
2023-11-11 09:46:00,SystemResetWarning,0830.5,5.00,000.00,022.5,021.4,000.0,031.0,023.9,6.9,0000.0,0003.01,0005.42,0002.16
2023-11-11 09:47:00,SystemResetWarning,0830.5,5.00,000.00,022.5,021.4,000.0,031.0,023.9,6.7,0000.0,0003.00,0005.42,0002.15
2023-11-11 09:48:00,SystemResetWarning,0830.6,5.00,000.00,022.5,021.4,000.0,031.0,023.8,6.8,0000.0,0002.97,0005.56,0002.14
2023-11-11 09:49:00,SystemResetWarning,0830.6,5.00,000.00,022.5,021.4,000.0,031.0,023.9,7.0,0000.0,0002.97,0005.61,0002.12
2023-11-11 09:50:00,SystemResetWarning,0830.7,5.00,000.00,022.5,021.4,000.0,031.0,023.8,7.1,0000.0,0002.94,0005.57,0002.10
2023-11-11 09:51:00,SystemResetWarning,0830.7,4.99,000.00,022.5,021.4,000.0,031.0,023.9,7.1,0000.0,0002.95,0005.55,0002.11
2023-11-11 09:52:00,SystemResetWarning,0830.7,4.99,000.00,022.5,021.4,000.0,031.0,023.9,7.2,0000.0,0002.96,0005.61,0002.13
2023-11-11 09:53:00,SystemResetWarning,0830.7,5.00,000.00,022.5,021.4,000.0,031.0,023.9,7.1,0000.0,0002.93,0005.37,0002.13
2023-11-11 09:54:00,SystemResetWarning,0830.7,5.01,000.00,022.5,021.4,000.0,031.0,023.8,6.9,0000.0,0002.96,0006.49,0002.14
2023-11-11 09:55:00,SystemResetWarning,0830.7,5.00,000.00,022.5,021.4,000.0,031.0,023.8,6.8,0000.0,0002.97,0006.97,0002.14
2023-11-11 09:56:00,SystemResetWarning,0830.7,5.01,000.00,022.5,021.4,000.0,031.0,023.8,6.9,0000.0,0002.96,0006.99,0002.14
2023-11-11 09:57:00,SystemResetWarning,0830.7,5.00,000.00,022.5,021.4,000.0,030.9,023.8,6.7,0000.0,0002.93,0007.00,0002.14
2023-11-11 09:58:00,SystemResetWarning,0830.7,5.00,000.00,022.5,021.5,000.0,030.9,023.8,7.0,0000.0,0002.93,0007.11,0002.16
2023-11-11 09:59:00,SystemResetWarning,0830.7,4.99,000.00,022.5,021.5,000.0,030.9,023.8,7.0,0000.0,0003.00,0007.15,0002.17
